Change the Weather History Date:

Friday, August 30, 2013

  Actual Average Record
Temperature  
Mean Temperature 82 °F 83 °F  
Max Temperature 89 °F 91 °F 96 °F (1963)
Min Temperature 75 °F 76 °F 69 °F (1969)
Degree Days  
Heating Degree Days 0 0  
Month to date heating degree days 0 0  
Since 1 June heating degree days 0 0  
Since 1 July heating degree days 0 0  
Cooling Degree Days 17 18  
Month to date cooling degree days 548 540  
Year to date cooling degree days 2678 2634  
Since 1 June cooling degree days 1574 1606  
Growing Degree Days 32 (Base 50)    
Moisture  
Dew Point 75 °F    
Average Humidity 80    
Maximum Humidity 94    
Minimum Humidity 65    
Precipitation  
Precipitation 0.00 in 0.29 in 2.16 in (1980)
Month to date precipitation 7.85 8.30  
Year to date precipitation 36.01 36.24  
Snow  
Snow 0.00 in - - ()
Month to date snowfall 0.0  
Since 1 June snowfall 0.0  
Since 1 July snowfall 0.0  
Snow Depth 0.00 in    
Sea Level Pressure  
Sea Level Pressure 29.96 in    
Wind  
Wind Speed 3 mph (West)    
Max Wind Speed 14 mph    
Max Gust Speed 16 mph    
Visibility 10 miles    
Events Thunderstorm    
T = Trace of Precipitation, MM = Missing Value Source: NWS Daily Summary

Daily Weather History Graph

Daily Weather History Graph

Search for Another Location

Airport or City:

Trip Planner

Search our weather history database for the weather conditions in past years. The results will help you decide how hot, cold, wet, or windy it might be!

Date:

Astronomy

Aug. 30, 2013 Rise Set
Actual Time 7:06 AM EDT 7:48 PM EDT
Civil Twilight 6:42 AM EDT 8:11 PM EDT
Nautical Twilight 6:15 AM EDT 8:39 PM EDT
Astronomical Twilight 5:47 AM EDT 9:07 PM EDT
Moon 2:01 AM EDT (8/30) 3:46 PM EDT (8/30)
Length of Visible Light 13h 29m
Length of Day
12h 42m
Waning Crescent, 29% of the Moon is Illuminated
Aug 30
Waning Crescent
Sep 5
New
Sep 12
First Quarter
Sep 19
Full
Sep 26
Last Quarter

Hourly Weather History & Observations

Time (EDT) Temp. Heat Index Dew Point Humidity Pressure Visibility Wind Dir Wind Speed Gust Speed Precip Events Conditions
12:53 AM 80.1 °F 85.4 °F 75.9 °F 87% 29.99 in 10.0 mi Calm Calm - N/A   Clear
1:53 AM 79.0 °F - 75.0 °F 88% 29.97 in 10.0 mi ENE 3.5 mph - N/A   Clear
2:53 AM 78.1 °F - 73.9 °F 87% 29.95 in 10.0 mi NE 3.5 mph - N/A   Clear
3:53 AM 77.0 °F - 73.9 °F 90% 29.95 in 10.0 mi Calm Calm - N/A   Clear
4:53 AM 75.9 °F - 73.9 °F 94% 29.95 in 10.0 mi East 3.5 mph - N/A   Clear
5:53 AM 75.9 °F - 73.9 °F 94% 29.95 in 10.0 mi Calm Calm - N/A   Clear
6:53 AM 75.9 °F - 73.9 °F 94% 29.95 in 9.0 mi Calm Calm - N/A   Clear
7:53 AM 78.1 °F - 73.9 °F 87% 29.96 in 9.0 mi Calm Calm - N/A   Clear
8:53 AM 82.0 °F 87.9 °F 73.9 °F 76% 29.99 in 10.0 mi Calm Calm - N/A   Clear
9:53 AM 84.0 °F 91.2 °F 73.9 °F 72% 30.01 in 10.0 mi Calm Calm - N/A   Clear
10:53 AM 86.0 °F 93.0 °F 73.0 °F 65% 30.00 in 10.0 mi Calm Calm - N/A   Scattered Clouds
11:53 AM 87.1 °F 97.3 °F 75.9 °F 69% 30.01 in 10.0 mi WSW 9.2 mph - N/A   Mostly Cloudy
12:24 PM 84.2 °F 92.3 °F 75.2 °F 74% 30.00 in 10.0 mi SW 9.2 mph - N/A Thunderstorm Thunderstorm
12:53 PM 80.1 °F 84.2 °F 73.0 °F 79% 29.99 in 10.0 mi SE 9.2 mph - N/A Thunderstorm Thunderstorm
1:08 PM 80.6 °F 85.4 °F 73.4 °F 79% 30.00 in 10.0 mi East 6.9 mph - N/A Thunderstorm Thunderstorm
1:42 PM 80.6 °F 85.4 °F 73.4 °F 79% 29.99 in 10.0 mi Calm Calm - N/A   Scattered Clouds
1:53 PM 82.0 °F 87.9 °F 73.9 °F 76% 29.98 in 10.0 mi Calm Calm - N/A   Scattered Clouds
2:07 PM 84.2 °F 90.9 °F 73.4 °F 70% 29.97 in 10.0 mi Calm Calm - N/A Thunderstorm Clear
2:32 PM 87.8 °F 95.6 °F 73.4 °F 62% 29.97 in 10.0 mi WSW 6.9 mph - N/A   Clear
2:53 PM 88.0 °F 97.5 °F 75.0 °F 65% 29.95 in 10.0 mi WSW 6.9 mph - N/A   Partly Cloudy
3:53 PM 87.1 °F 96.3 °F 75.0 °F 67% 29.94 in 10.0 mi West 9.2 mph - N/A   Scattered Clouds
4:53 PM 87.1 °F 96.3 °F 75.0 °F 67% 29.93 in 10.0 mi WSW 9.2 mph - N/A   Partly Cloudy
5:53 PM 86.0 °F 95.1 °F 75.0 °F 70% 29.93 in 10.0 mi West 8.1 mph - N/A   Clear
6:53 PM 86.0 °F 96.0 °F 75.9 °F 72% 29.91 in 10.0 mi West 4.6 mph - N/A   Clear
7:53 PM 84.0 °F 92.6 °F 75.9 °F 76% 29.92 in 10.0 mi NW 3.5 mph - N/A   Clear
8:53 PM 82.9 °F 90.8 °F 75.9 °F 79% 29.94 in 10.0 mi Calm Calm - N/A   Clear
9:53 PM 82.0 °F 91.0 °F 78.1 °F 88% 29.94 in 10.0 mi Calm Calm - N/A   Mostly Cloudy
10:53 PM 82.0 °F 90.2 °F 77.0 °F 85% 29.95 in 10.0 mi Calm Calm - N/A   Mostly Cloudy
11:53 PM 80.1 °F 85.4 °F 75.9 °F 87% 29.95 in 10.0 mi NE 4.6 mph - N/A   Scattered Clouds